{"data":{"norad_id":68773,"epoch":"2026-05-25T04:00:03.998880Z","epoch_age_seconds":63759,"freshness":"FRESH","line1":"1 68773U 26086H   26145.16671295 -.00571486  00000+0 -11151-1 0  9990","line2":"2 68773  97.2852 181.9154 0001331  78.3699  20.4216 15.49537597  6078","mean_motion":15.49537597,"eccentricity":0.0001331,"inclination_deg":97.2852,"raan_deg":181.9154,"arg_perigee_deg":78.3699,"mean_anomaly_deg":20.4216,"bstar":-0.011151,"rev_number":607,"period_min":92.930949386961,"perigee_km":417.17321190151,"apogee_km":418.9823642781,"semimajor_km":6796.2147880898,"source":"CELESTRAK","updated_at":"2026-05-25T13:38:22.035550Z"}}